Weather History for KGTF - June, 2014

Change the Weather History Date:

Tuesday, June 24, 2014

  Actual Average Record
Temperature  
Mean Temperature 63 °F 62 °F  
Max Temperature 79 °F 76 °F 97 °F (1974)
Min Temperature 47 °F 48 °F 36 °F (2003)
Degree Days  
Heating Degree Days 2 5  
Month to date heating degree days 200 167  
Since 1 June heating degree days 200 167  
Since 1 July heating degree days 7988 7702  
Cooling Degree Days 0 2  
Month to date cooling degree days 0 21  
Year to date cooling degree days 0 28  
Since 1 June cooling degree days 0 21  
Growing Degree Days 13 (Base 50)    
Moisture  
Dew Point 50 °F    
Average Humidity 64    
Maximum Humidity 93    
Minimum Humidity 35    
Precipitation  
Precipitation T in 0.07 in 0.70 in (1965)
Month to date precipitation 4.09 2.15  
Year to date precipitation 11.20 7.88  
Snow  
Snow 0.00 in 0.00 in T in (1991)
Month to date snowfall 0.0 0.3  
Since 1 June snowfall 0.0 0.3  
Since 1 July snowfall 76.4 63.5  
Snow Depth 0.00 in    
Sea Level Pressure  
Sea Level Pressure 29.96 in    
Wind  
Wind Speed 6 mph (SE)    
Max Wind Speed 22 mph    
Max Gust Speed 29 mph    
Visibility 10 miles    
Events Rain , Thunderstorm    
T = Trace of Precipitation, MM = Missing Value Source: NWS Daily Summary

Daily Weather History Graph

Daily Weather History Graph

Search for Another Location

Airport or City:

Trip Planner

Search our weather history database for the weather conditions in past years. The results will help you decide how hot, cold, wet, or windy it might be!

Date:

Astronomy

Jun. 24, 2014 Rise Set
Actual Time 5:29 AM MDT 9:26 PM MDT
Civil Twilight 4:48 AM MDT 10:07 PM MDT
Nautical Twilight 3:52 AM MDT 11:03 PM MDT
Astronomical Twilight 2:24 AM MDT 12:31 AM MDT
Moon 3:47 AM MDT (6/24) 7:00 PM MDT (6/24)
Length of Visible Light 17h 18m
Length of Day
15h 57m
Waning Crescent, 6% of the Moon is Illuminated
Jun 24
Waning Crescent
Jun 27
New
Jul 5
First Quarter
Jul 12
Full
Jul 18
Last Quarter

Hourly Weather History & Observations

Time (MDT) Temp. Dew Point Humidity Pressure Visibility Wind Dir Wind Speed Gust Speed Precip Events Conditions
12:53 AM 57.0 °F 48.0 °F 72% 30.03 in 10.0 mi Calm Calm - N/A   Clear
1:53 AM 52.0 °F 46.9 °F 83% 30.04 in 10.0 mi NE 3.5 mph - N/A   Clear
2:53 AM 48.0 °F 46.9 °F 96% 30.04 in 10.0 mi SW 5.8 mph - N/A   Clear
3:53 AM 52.0 °F 46.9 °F 83% 30.02 in 10.0 mi Calm Calm - N/A   Clear
4:53 AM 48.9 °F 45.0 °F 86% 30.02 in 10.0 mi Calm Calm - N/A   Clear
5:53 AM 48.9 °F 46.0 °F 90% 30.02 in 10.0 mi Calm Calm - N/A   Clear
6:53 AM 53.1 °F 50.0 °F 89% 30.02 in 10.0 mi WSW 3.5 mph - N/A   Clear
7:53 AM 57.2 °F 48.2 °F 72% 30.07 in 10.0 mi Calm Calm - N/A   Clear
8:53 AM 63.0 °F 52.0 °F 67% 30.01 in 10.0 mi SSE 3.5 mph - N/A   Clear
9:53 AM 66.9 °F 51.1 °F 57% 30.00 in 10.0 mi Calm Calm - N/A   Clear
10:53 AM 70.0 °F 46.9 °F 44% 29.99 in 10.0 mi Variable 3.5 mph - N/A   Clear
11:53 AM 73.0 °F 48.9 °F 42% 29.96 in 10.0 mi East 5.8 mph - N/A   Clear
12:53 PM 75.0 °F 48.0 °F 38% 29.95 in 10.0 mi East 8.1 mph - N/A   Clear
1:53 PM 75.9 °F 50.0 °F 40% 29.93 in 10.0 mi East 10.4 mph - N/A   Clear
2:53 PM 77.0 °F 50.0 °F 39% 29.92 in 10.0 mi East 9.2 mph - N/A   Clear
3:53 PM 78.1 °F 48.9 °F 36% 29.89 in 10.0 mi East 6.9 mph - N/A   Clear
4:53 PM 77.0 °F 48.0 °F 36% 29.89 in 10.0 mi East 3.5 mph - N/A   Clear
5:36 PM 68.0 °F 50.0 °F 52% 29.94 in 10.0 mi WSW 18.4 mph 26.5 mph N/A Thunderstorm Mostly Cloudy
5:51 PM 66.2 °F 51.8 °F 60% 29.95 in 10.0 mi West 13.8 mph - N/A   Scattered Clouds
5:53 PM 66.9 °F 51.1 °F 57% 29.92 in 10.0 mi West 13.8 mph - N/A   Mostly Cloudy
6:04 PM 66.2 °F 51.8 °F 60% 29.95 in 10.0 mi West 10.4 mph - N/A Thunderstorm Mostly Cloudy
6:34 PM 66.2 °F 57.2 °F 73% 29.94 in 10.0 mi NE 3.5 mph - 0.00 in Rain Light Rain
6:53 PM 68.0 °F 57.0 °F 68% 29.91 in 10.0 mi ESE 5.8 mph - 0.00 in   Mostly Cloudy
7:53 PM 70.0 °F 52.0 °F 53% 29.88 in 10.0 mi East 6.9 mph - N/A   Clear
8:53 PM 64.0 °F 53.1 °F 67% 29.89 in 10.0 mi ESE 6.9 mph - N/A   Partly Cloudy
9:53 PM 66.0 °F 53.1 °F 63% 29.88 in 10.0 mi SSE 8.1 mph - N/A   Overcast
10:53 PM 66.0 °F 51.1 °F 59% 29.86 in 10.0 mi South 11.5 mph - 0.00 in   Clear
11:53 PM 63.0 °F 50.0 °F 63% 29.84 in 10.0 mi SSW 17.3 mph 21.9 mph N/A   Clear